This is the latest recevied weather packets stored in our database for station/object W4NRG-1. If no packets are shown the sender has not sent any weather packets the latest 1 day(s).
| Time | Temp. | Humidity | Pressure | Rain* | Wind** | Luminosity | Snow |
|---|---|---|---|---|---|---|---|
| 1777981443 | 17.22° C | 67% | 1014.8 hPa | 0 mm | 1.34 m/s, 182° | - | - |
| 1777981139 | 17.22° C | 68% | 1014.5 hPa | 0 mm | 0 m/s | - | - |
| 1777980836 | 17.22° C | 68% | 1014.5 hPa | 0 mm | 0.45 m/s, 250° | - | - |
| 1777980531 | 16.67° C | 68% | 1014.3 hPa | 0 mm | 0.45 m/s, 93° | - | - |
| 1777980230 | 16.67° C | 69% | 1014.4 hPa | 0 mm | 0 m/s | - | - |
| 1777979925 | 16.67° C | 69% | 1014.5 hPa | 0 mm | 0.45 m/s, 358° | - | - |
| 1777979620 | 16.67° C | 69% | 1014.4 hPa | 0 mm | 0.45 m/s, 291° | - | - |
| 1777979317 | 16.67° C | 69% | 1014.3 hPa | 0 mm | 0 m/s | - | - |
| 1777979014 | 16.67° C | 69% | 1014.3 hPa | 0 mm | 0 m/s | - | - |
| 1777978711 | 16.11° C | 70% | 1014.3 hPa | 0 mm | 0.45 m/s, 285° | - | - |
| 1777978407 | 16.11° C | 70% | 1014.1 hPa | 0 mm | 0.45 m/s, 237° | - | - |
| 1777978103 | 16.11° C | 70% | 1014.2 hPa | 0 mm | 0 m/s | - | - |
| 1777977801 | 16.11° C | 70% | 1014.4 hPa | 0 mm | 0.45 m/s, 40° | - | - |
| 1777977497 | 16.11° C | 70% | 1014.3 hPa | 0 mm | 0.45 m/s, 40° | - | - |
| 1777977195 | 16.11° C | 70% | 1014 hPa | 0 mm | 0.45 m/s, 57° | - | - |
| 1777976892 | 16.11° C | 71% | 1014.4 hPa | 0 mm | 0.45 m/s, 222° | - | - |
| 1777976589 | 16.11° C | 71% | 1014.2 hPa | 0 mm | 0.45 m/s, 25° | - | - |
| 1777976289 | 15.56° C | 71% | 1014.3 hPa | 0 mm | 0.45 m/s, 277° | - | - |
| 1777975984 | 15.56° C | 72% | 1014.2 hPa | 0 mm | 0.45 m/s, 227° | - | - |
| 1777975681 | 15.56° C | 72% | 1014 hPa | 0 mm | 0 m/s | - | - |
| 1777975377 | 15.56° C | 72% | 1013.9 hPa | 0 mm | 0 m/s | - | - |
| 1777975073 | 15.56° C | 72% | 1014 hPa | 0 mm | 0.45 m/s, 80° | - | - |
| 1777974771 | 15.56° C | 72% | 1013.9 hPa | 0 mm | 0 m/s | - | - |
| 1777974466 | 15.56° C | 72% | 1013.9 hPa | 0 mm | 0 m/s | - | - |
| 1777974163 | 15.56° C | 71% | 1014.1 hPa | 0 mm | 0.45 m/s, 353° | - | - |
* Rain latest hour (hover to see other rain measurements)
** Current wind speed in m/s (hover to see current wind gust speed)